Location: Lake Arresoe
(56.0000°N, 12.5000°E)
Time: 09:33:49
(UTC+02:00)

Resurs 1-4 Rocket - Visible Passes

Search period start: 17 October 2017 00:00
Search period end: 27 October 2017 00:00
Orbit: 800 x 813 km, 98.5° (Epoch: 16 October)

Date Brightness Start Highest point End Pass type
(mag) Time Alt. Az. Time Alt. Az. Time Alt. Az.
17 Oct 4.2 02:34:20 10° NNE 02:36:53 22° ENE 02:36:53 22° ENE visible
17 Oct 2.6 04:13:52 10° NNE 04:17:57 50° NNW 04:17:57 50° NNW visible
17 Oct 3.7 05:54:45 10° N 05:58:08 17° NW 05:59:02 17° WNW visible
18 Oct 4.6 02:10:16 10° NE 02:11:54 15° ENE 02:11:54 15° ENE visible
18 Oct 2.9 03:49:15 10° NNE 03:52:59 47° NNE 03:52:59 47° NNE visible
18 Oct 3.4 05:29:47 10° N 05:33:54 23° NW 05:34:03 23° NW visible
19 Oct 5.0 01:46:44 10° NE 01:46:55 10° ENE 01:46:55 10° ENE visible
19 Oct 3.4 03:24:41 10° NNE 03:27:59 37° NE 03:27:59 37° NE visible
19 Oct 3.1 05:04:56 10° N 05:09:04 31° NW 05:09:04 31° NW visible
20 Oct 3.9 03:00:13 10° NNE 03:03:00 28° NE 03:03:00 28° NE visible
20 Oct 2.9 04:40:09 10° N 04:44:05 38° NNW 04:44:05 38° NNW visible
20 Oct 4.0 06:21:35 10° NNW 06:23:50 13° NW 06:25:09 12° NW visible
21 Oct 4.4 02:35:53 10° NNE 02:38:01 20° NE 02:38:01 20° NE visible
21 Oct 2.9 04:15:27 10° NNE 04:19:06 42° N 04:19:06 42° N visible
21 Oct 3.7 05:56:21 10° N 05:59:40 17° NW 06:00:10 17° NW visible
22 Oct 4.7 02:11:46 10° NE 02:13:02 14° NE 02:13:02 14° NE visible
22 Oct 3.2 03:50:49 10° NNE 03:54:07 39° NNE 03:54:07 39° NNE visible
22 Oct 3.4 05:31:22 10° N 05:35:11 23° NW 05:35:11 23° NW visible
23 Oct 3.7 03:26:14 10° NNE 03:29:07 32° NNE 03:29:07 32° NNE visible
23 Oct 3.2 05:06:31 10° N 05:10:12 29° NW 05:10:12 29° NW visible
24 Oct 4.1 03:01:46 10° NNE 03:04:08 25° NE 03:04:08 25° NE visible
24 Oct 3.1 04:41:44 10° N 04:45:12 34° NNW 04:45:12 34° NNW visible
24 Oct 4.0 06:23:13 10° NNW 06:25:22 12° NW 06:26:17 12° NW visible
25 Oct 4.5 02:37:25 10° NNE 02:39:09 18° NE 02:39:09 18° NE visible
25 Oct 3.2 04:17:01 10° NNE 04:20:14 36° N 04:20:14 36° N visible
25 Oct 3.8 05:57:57 10° N 06:01:12 17° NW 06:01:18 17° NW visible
26 Oct 4.9 02:13:18 10° NE 02:14:10 13° NE 02:14:10 13° NE visible
26 Oct 3.5 03:52:22 10° NNE 03:55:15 33° NNE 03:55:15 33° NNE visible
26 Oct 3.5 05:32:58 10° N 05:36:19 22° NW 05:36:19 22° NW visible
